Flag for Macedonia, Republic of Weather past 2 weeks in Ohrid, Macedonia, Republic of

Now
55 °F

Partly sunny.


Feels Like: 53 °F
Forecast: 34 / 51 °F
Wind: 9 mph from South

Location: Ohrid Airport

Current Time: Apr 1, 2015 at 3:58:45 PM

Latest Report: Apr 1, 2015 at 3:30 PM


Visibility: N/A

Pressure: 29.77 "Hg

Humidity: 63%

Dew point: 43 °F

Location of OhridLocation

Historic Weather in Ohrid — Graph

°F

Ohrid temperature yesterday

Maximum temperature yesterday: 55 °F (at 3:30 PM)
Minimum temperature yesterday: 43 °F (at 7:30 AM)
Average temperature yesterday: 51 °F

Past Weeks' High & Low Weather Summary

 TemperatureHumidityPressure
High57 °F (Apr 1, 12:00 PM)87% (Mar 19, 1:00 PM)30.36 "Hg (Mar 19, 1:00 PM)
Low27 °F (Mar 22, 5:00 AM)20% (Mar 20, 5:00 PM)29.59 "Hg (Mar 27, 1:30 PM)
Average46 °F61%29.96 "Hg
* Reported Mar 17 1:00 PM — Apr 1 2:30 PM, Ohrid, Weather by CustomWeather, © 2015

Note: Actual official high and low records may vary slightly from our data, if they occured in-between our weather recording intervals... More about our weather records

Advertising

Ohrid weather history for previous 24 hours

 ConditionsComfort  
Time TempWeatherWind HumidityBarometerVisibility
2:30 PM
Wed, Apr 1
55 °FPartly sunny.6 mph59%29.77 "HgN/A
2:00 PM57 °FPartly sunny.5 mph55%29.77 "HgN/A
1:30 PM55 °FScattered clouds.5 mph63%29.77 "HgN/A
1:00 PM55 °FScattered clouds.7 mph55%29.77 "HgN/A
12:30 PM57 °FScattered clouds.6 mph51%29.77 "HgN/A
12:00 PM57 °FScattered clouds.2 mph55%29.80 "HgN/A
11:30 AM55 °FPassing clouds.3 mph55%29.80 "HgN/A
11:00 AM54 °FPassing clouds.2 mph58%29.80 "HgN/A
10:30 AM54 °FPassing clouds.3 mph58%29.80 "HgN/A
10:00 AM54 °FPassing clouds.5 mph58%29.80 "HgN/A
9:30 AM52 °FPassing clouds.5 mph62%29.80 "HgN/A
9:00 AM50 °FPassing clouds.2 mph67%29.80 "HgN/A
8:30 AM50 °FPassing clouds.No wind67%29.80 "HgN/A
8:00 AM46 °FPassing clouds.1 mph76%29.80 "HgN/A
7:30 AM43 °FPassing clouds.2 mph81%29.80 "HgN/A
4:00 PM
Tue, Mar 31
54 °FBroken clouds.6 mph47%29.86 "HgN/A
3:30 PM55 °FPartly sunny.6 mph51%29.86 "HgN/A
3:00 PM54 °FScattered clouds.5 mph47%29.89 "HgN/A
Weather by CustomWeather, © 2015

See weather overviewHow to use our weather pages